Visibility
15.0 15.0 15.0 15.0 15.0 15.0 15.0 15.0 15.0 15.0 15.0 15.0 15.0 15.0 15.0 15.0 15.0 15.0 15.0 15.0 15.0 15.0 14.9 14.5 15.0 15.0 15.0 15.0 15.0 15.0 15.0 15.0 15.0 15.0 15.0 15.0 15.0 15.0 15.0 7.5 15.0 15.0 15.0
15.0 15.0 15.0 15.0 15.0 15.0 15.0 15.0 15.0 15.0 15.0 15.0 15.0 15.0 15.0 15.0 15.0 15.0 15.0 15.0 15.0 15.0 15.0 15.0 15.0 15.0 15.0 15.0 15.0 15.0 15.0 15.0 13.3 15.0 14.1 15.0 3.4 7.4 14.6 15.0 15.0 15.0 15.0
15.0 15.0 15.0 15.0 15.0 15.0 15.0 15.0 15.0 15.0 15.0 15.0 15.0 15.0 15.0 15.0 15.0 15.0 15.0 15.0 15.0 15.0 15.0 15.0 15.0 15.0 15.0 13.1 15.0 3.5 2.7 11.2 0.7 0.1 0.4 14.3 15.0 4.0 15.0 14.4 15.0 15.0 15.0
15.0 15.0 15.0 15.0 15.0 15.0 15.0 15.0 15.0 15.0 15.0 15.0 15.0 15.0 15.0 15.0 15.0 15.0 15.0 15.0 15.0 2.8 7.3 15.0 15.0 15.0 15.0 15.0 15.0 15.0 11.0 11.2 6.6 6.8 7.5 3.8 11.3 15.0 15.0 0.8 5.9 15.0 15.0
15.0 15.0 15.0 15.0 15.0 15.0 15.0 15.0 15.0 15.0 15.0 15.0 15.0 15.0 15.0 15.0 15.0 15.0 15.0 14.4 14.2 14.0 15.0 15.0 15.0 15.0 15.0 15.0 15.0 15.0 10.3 14.3 4.1 15.0 5.5 15.0 2.7 2.3 0.1 5.7 1.1 15.0 15.0
15.0 15.0 15.0 15.0 15.0 15.0 15.0 15.0 15.0 15.0 15.0 15.0 15.0 15.0 15.0 15.0 10.7 0.3 15.0 15.0 15.0 15.0 1.3 8.8 15.0 8.3 15.0 13.2 6.3 2.1 11.5 15.0 0.1 13.0 0.2 0.1 0.1 0.0 0.0 0.0 0.0 0.0 0.0
15.0 15.0 15.0 15.0 15.0 15.0 15.0 15.0 15.0 9.1 15.0 15.0 15.0 15.0 15.0 15.0 15.0 15.0 15.0 15.0 14.7 15.0 15.0 15.0 9.9 0.2 0.1 4.4 0.3 3.5 14.9 9.3 4.6 0.2 0.0 0.0 0.0 0.1 4.7 11.2 12.7 6.4 0.4
15.0 15.0 15.0 15.0 15.0 15.0 15.0 15.0 15.0 15.0 15.0 15.0 15.0 15.0 15.0 15.0 13.1 14.5 12.5 15.0 15.0 15.0 4.9 1.4 2.1 0.7 0.2 0.1 2.3 2.9 2.9 15.0 15.0 15.0 0.4 6.9 13.5 15.0 1.6 5.4 1.0 11.4 15.0
15.0 15.0 15.0 15.0 15.0 15.0 15.0 15.0 15.0 15.0 15.0 15.0 15.0 15.0 15.0 8.8 11.4 15.0 15.0 15.0 1.1 0.6 1.8 1.3 1.6 0.3 0.8 8.4 15.0 15.0 15.0 15.0 15.0 15.0 15.0 15.0 2.4 0.2 12.4 15.0 15.0 15.0 15.0
15.0 15.0 15.0 15.0 15.0 15.0 15.0 14.3 15.0 15.0 13.0 14.4 6.4 11.0 3.8 6.3 7.2 11.6 11.9 9.7 1.3 0.8 1.0 0.9 3.8 15.0 15.0 15.0 15.0 15.0 11.3 15.0 15.0 15.0 14.6 15.0 15.0 15.0 15.0 15.0 15.0 0.7 1.3
7.8 9.1 13.1 15.0 15.0 13.4 13.4 14.7 14.1 3.9 2.5 2.2 2.5 6.7 2.2 6.5 6.8 5.7 7.7 15.0 15.0 7.2 7.1 15.0 15.0 15.0 15.0 15.0 15.0 15.0 15.0 15.0 15.0 15.0 15.0 15.0 15.0 15.0 15.0 15.0 15.0 15.0 11.1
11.2 4.8 3.2 15.0 15.0 13.0 15.0 15.0 15.0 15.0 7.2 3.9 2.1 1.2 3.1 10.1 12.9 15.0 15.0 15.0 15.0 15.0 15.0 15.0 15.0 15.0 15.0 15.0 15.0 15.0 15.0 15.0 15.0 15.0 15.0 15.0 15.0 15.0 15.0 15.0 15.0 15.0 15.0
6.3 5.6 7.8 8.9 7.4 12.4 4.4 15.0 15.0 11.4 3.6 4.0 0.8 0.7 1.0 9.2 13.8 15.0 15.0 15.0 15.0 15.0 15.0 15.0 15.0 15.0 15.0 15.0 15.0 15.0 15.0 15.0 15.0 15.0 15.0 15.0 15.0 15.0 15.0 15.0 15.0 15.0 15.0
13.6 6.8 14.2 3.9 14.4 15.0 13.0 3.9 1.6 1.8 1.2 0.8 1.8 2.3 13.1 13.8 15.0 7.6 5.0 15.0 15.0 15.0 15.0 15.0 15.0 15.0 15.0 15.0 15.0 15.0 15.0 15.0 15.0 15.0 15.0 15.0 15.0 15.0 15.0 15.0 15.0 15.0 15.0
9.7 10.2 12.3 3.6 2.9 0.8 0.5 0.6 0.5 0.2 0.4 0.2 0.1 2.7 13.4 3.7 2.8 1.7 2.1 15.0 15.0 15.0 15.0 15.0 15.0 15.0 15.0 15.0 15.0 15.0 15.0 15.0 15.0 15.0 15.0 15.0 15.0 15.0 15.0 15.0 15.0 15.0 15.0
1.3 0.7 0.8 0.8 0.8 3.2 1.3 0.1 0.1 0.1 0.1 0.2 0.2 0.5 1.8 4.0 3.0 5.6 12.3 15.0 15.0 15.0 15.0 15.0 15.0 15.0 15.0 15.0 15.0 15.0 15.0 15.0 15.0 15.0 15.0 15.0 15.0 15.0 15.0 15.0 15.0 15.0 15.0
1.0 1.0 0.8 1.2 0.9 0.3 0.2 0.2 0.1 0.1 0.4 1.0 0.9 1.3 1.5 2.5 3.5 5.5 14.9 9.0 5.8 15.0 15.0 15.0 15.0 15.0 15.0 15.0 15.0 15.0 9.8 15.0 15.0 15.0 15.0 15.0 15.0 15.0 15.0 15.0 15.0 15.0 10.9
0.6 0.5 0.1 0.1 0.1 0.1 0.1 0.1 0.2 0.8 1.2 1.0 1.2 1.2 2.3 4.7 9.7 9.3 15.0 15.0 15.0 15.0 15.0 15.0 15.0 15.0 15.0 15.0 15.0 15.0 15.0 15.0 15.0 15.0 15.0 15.0 14.8 14.9 15.0 15.0 12.0 3.0 3.8
0.1 0.1 0.1 0.1 0.1 0.1 0.3 2.0 2.0 1.4 0.9 0.7 1.0 14.2 15.0 15.0 15.0 15.0 15.0 15.0 15.0 14.8 15.0 13.5 15.0 15.0 15.0 15.0 10.7 15.0 15.0 14.1 15.0 11.3 15.0 10.2 12.2 15.0 11.0 8.4 3.2 3.9 10.7
0.1 0.1 0.2 0.4 1.2 8.2 9.6 12.2 12.5 10.7 5.6 11.4 14.8 4.4 15.0 15.0 15.0 14.8 15.0 14.8 12.8 8.9 15.0 14.1 13.1 15.0 15.0 15.0 15.0 15.0 7.1 6.8 4.3 3.3 3.7 4.5 8.0 15.0 8.6 3.4 1.4 1.8 14.7
0.2 1.3 15.0 15.0 14.8 14.6 8.8 5.0 4.8 8.4 15.0 15.0 15.0 15.0 15.0 14.7 6.0 5.9 5.9 6.6 2.6 11.7 6.6 7.1 9.7 14.7 13.4 4.7 15.0 5.3 4.3 5.7 6.9 3.9 3.5 8.9 14.6 3.2 5.3 2.9 13.3 10.8 3.3
15.0 15.0 15.0 5.8 5.8 5.8 9.4 15.0 15.0 15.0 15.0 15.0 15.0 15.0 15.0 15.0 6.0 10.6 15.0 5.4 4.5 7.8 4.5 15.0 14.1 6.7 12.3 15.0 4.9 2.2 7.2 4.1 3.0 1.1 2.2 5.2 11.4 8.1 9.8 7.2 2.8 2.9 11.2
15.0 15.0 15.0 15.0 15.0 15.0 15.0 15.0 15.0 13.4 10.9 15.0 15.0 15.0 15.0 12.3 4.5 9.8 11.3 12.1 15.0 13.9 9.0 15.0 15.0 4.7 15.0 15.0 14.0 12.5 4.5 0.7 0.8 6.1 14.7 3.7 3.1 5.4 4.2 1.0 4.4 4.1 2.3
15.0 15.0 15.0 15.0 15.0 15.0 15.0 14.9 15.0 13.2 10.3 15.0 15.0 15.0 10.3 4.8 1.7 6.2 6.2 15.0 15.0 15.0 15.0 14.4 1.1 0.9 14.0 11.6 15.0 11.4 0.8 2.0 14.3 13.9 2.6 1.0 1.3 2.1 1.2 1.3 1.8 1.0 0.7
15.0 15.0 15.0 15.0 13.1 7.4 9.5 15.0 15.0 15.0 15.0 15.0 15.0 9.0 7.7 15.0 15.0 4.2 5.0 15.0 15.0 15.0 14.2 3.0 13.3 15.0 15.0 14.4 13.8 6.7 11.6 5.3 1.8 2.2 9.2 5.6 1.5 1.9 1.4 1.1 1.4 2.1 7.7
14.0 11.4 11.0 14.0 13.9 14.6 10.2 12.0 13.4 15.0 5.4 15.0 15.0 2.8 10.6 15.0 15.0 1.5 14.8 15.0 15.0 15.0 15.0 15.0 15.0 14.3 4.1 15.0 15.0 12.1 1.0 5.6 15.0 15.0 13.7 1.3 0.7 0.6 0.7 0.8 1.5 1.2 1.7